When you browse on this site, cookies collect data to enhance your experience and personalize the content and advertising you see.
Visit our Privacy Policy to learn more. By continuing to use the site, you agree to this use of cookies and data.
  • En España
  • Lista de países
  • Para 7 días
  • Temperatura del agua
  • El tiempo en el mapa
  • Informadores
  • user-avatar
    Iniciar sesión

    Tiempo cada hora Linz

    Hoy, 29 Mayo, Viernes

    Tiempo Temperatura Precipitaciones Viento Presión Humedad
    00:00 +9°C° 0 mm 1 mps 741 mmHg 92%
    01:00 +8°C° 0 mm 1 mps 741 mmHg 92%
    02:00 +9°C° 0 mm 1 mps 741 mmHg 93%
    03:00 +9°C° 0 mm 1 mps 741 mmHg 93%
    04:00 +9°C° 0 mm 1 mps 740 mmHg 93%
    05:00 +10°C° 0.2 mm 1 mps 740 mmHg 93%
    06:00 +10°C° 0.2 mm 1 mps 740 mmHg 92%
    07:00 +10°C° 0.2 mm 1 mps 740 mmHg 92%
    08:00 +11°C° 0.1 mm 1 mps 740 mmHg 89%
    09:00 +12°C° 0.1 mm 1 mps 740 mmHg 87%
    10:00 +13°C° 0.1 mm 1 mps 739 mmHg 84%
    11:00 +14°C° 0.4 mm 1 mps 739 mmHg 81%
    12:00 +15°C° 0.4 mm 1 mps 739 mmHg 78%
    13:00 +16°C° 0.4 mm 1 mps 738 mmHg 75%
    14:00 +16°C° 0.5 mm 1 mps 738 mmHg 74%
    15:00 +16°C° 0.5 mm 1 mps 738 mmHg 72%
    16:00 +16°C° 0.5 mm 1 mps 737 mmHg 71%
    17:00 +15°C° 0.4 mm 1 mps 737 mmHg 75%
    18:00 +14°C° 0.4 mm 1 mps 737 mmHg 79%
    19:00 +13°C° 0.4 mm 1 mps 737 mmHg 83%
    20:00 +12°C° 0 mm 1 mps 738 mmHg 84%
    21:00 +11°C° 0 mm 1 mps 738 mmHg 85%
    22:00 +9°C° 0 mm 1 mps 738 mmHg 86%
    23:00 +9°C° 0 mm 1 mps 738 mmHg 87%

    Mañana, 30 Mayo, Sábado

    Tiempo Temperatura Precipitaciones Viento Presión Humedad
    00:00 +8°C° 0 mm 1 mps 738 mmHg 88%
    01:00 +7°C° 0 mm 1 mps 738 mmHg 90%
    02:00 +7°C° 0 mm 1 mps 738 mmHg 90%
    03:00 +6°C° 0 mm 1 mps 737 mmHg 90%
    04:00 +6°C° 0 mm 1 mps 737 mmHg 91%
    05:00 +7°C° 0 mm 0 mps 737 mmHg 87%
    06:00 +8°C° 0 mm 0 mps 737 mmHg 83%
    07:00 +10°C° 0 mm 0 mps 737 mmHg 79%
    08:00 +12°C° 0.1 mm 1 mps 737 mmHg 72%
    09:00 +13°C° 0.1 mm 1 mps 737 mmHg 65%
    10:00 +15°C° 0.1 mm 1 mps 736 mmHg 58%
    11:00 +15°C° 0.1 mm 1 mps 736 mmHg 58%
    12:00 +15°C° 0.1 mm 2 mps 736 mmHg 58%
    13:00 +16°C° 0.1 mm 2 mps 736 mmHg 58%
    14:00 +16°C° 0.1 mm 2 mps 735 mmHg 58%
    15:00 +16°C° 0.1 mm 2 mps 735 mmHg 59%
    16:00 +16°C° 0.1 mm 2 mps 735 mmHg 59%
    17:00 +15°C° 0.1 mm 2 mps 735 mmHg 64%
    18:00 +14°C° 0.1 mm 1 mps 735 mmHg 70%
    19:00 +13°C° 0.1 mm 1 mps 735 mmHg 75%
    20:00 +11°C° 0 mm 1 mps 736 mmHg 79%
    21:00 +10°C° 0 mm 1 mps 736 mmHg 83%
    22:00 +8°C° 0 mm 1 mps 736 mmHg 87%
    23:00 +8°C° 0 mm 1 mps 736 mmHg 88%

    Pasado mañana, 31 Mayo, Domingo

    Tiempo Temperatura Precipitaciones Viento Presión Humedad
    00:00 +7°C° 0 mm 1 mps 736 mmHg 89%
    01:00 +7°C° 0 mm 1 mps 736 mmHg 90%
    02:00 +7°C° 0 mm 1 mps 736 mmHg 90%
    03:00 +7°C° 0 mm 1 mps 735 mmHg 90%
    04:00 +7°C° 0 mm 1 mps 735 mmHg 90%
    05:00 +8°C° 0 mm 1 mps 735 mmHg 86%
    06:00 +10°C° 0 mm 1 mps 735 mmHg 83%
    07:00 +10°C° 0 mm 2 mps 735 mmHg 79%
    08:00 +12°C° 0.1 mm 2 mps 735 mmHg 78%
    09:00 +12°C° 0.1 mm 2 mps 735 mmHg 77%
    10:00 +12°C° 0.1 mm 3 mps 735 mmHg 76%
    11:00 +13°C° 0.7 mm 2 mps 734 mmHg 81%
    12:00 +12°C° 0.7 mm 2 mps 734 mmHg 86%
    13:00 +12°C° 0.7 mm 2 mps 734 mmHg 91%
    14:00 +10°C° 0.8 mm 2 mps 734 mmHg 92%
    15:00 +10°C° 0.8 mm 2 mps 734 mmHg 94%
    16:00 +10°C° 0.8 mm 2 mps 735 mmHg 96%
    17:00 +10°C° 1.3 mm 3 mps 735 mmHg 96%
    18:00 +10°C° 1.3 mm 3 mps 735 mmHg 96%
    19:00 +8°C° 1.3 mm 4 mps 735 mmHg 97%
    20:00 +8°C° 1.1 mm 4 mps 735 mmHg 97%
    21:00 +10°C° 1.1 mm 4 mps 735 mmHg 97%
    22:00 +10°C° 1.1 mm 4 mps 735 mmHg 97%
    23:00 +10°C° 0.6 mm 3 mps 735 mmHg 97%

    1 Junio, Lunes

    Tiempo Temperatura Precipitaciones Viento Presión Humedad
    00:00 +10°C° 0.6 mm 3 mps 735 mmHg 97%
    01:00 +10°C° 0.6 mm 3 mps 734 mmHg 97%
    02:00 +10°C° 0.4 mm 3 mps 734 mmHg 97%
    03:00 +10°C° 0.4 mm 3 mps 734 mmHg 97%
    04:00 +10°C° 0.4 mm 2 mps 734 mmHg 97%
    05:00 +10°C° 0.2 mm 2 mps 734 mmHg 97%
    06:00 +10°C° 0.2 mm 2 mps 734 mmHg 97%
    07:00 +12°C° 0.2 mm 2 mps 734 mmHg 96%
    08:00 +12°C° 0.2 mm 2 mps 734 mmHg 96%
    09:00 +13°C° 0.2 mm 2 mps 734 mmHg 95%
    10:00 +13°C° 0.2 mm 2 mps 734 mmHg 95%
    11:00 +14°C° 0.6 mm 2 mps 734 mmHg 92%
    12:00 +15°C° 0.6 mm 2 mps 734 mmHg 90%
    13:00 +16°C° 0.6 mm 1 mps 734 mmHg 88%
    14:00 +18°C° 0.5 mm 1 mps 734 mmHg 85%
    15:00 +18°C° 0.5 mm 1 mps 734 mmHg 81%
    16:00 +19°C° 0.5 mm 1 mps 734 mmHg 78%
    17:00 +18°C° 0.3 mm 1 mps 734 mmHg 81%
    18:00 +16°C° 0.3 mm 1 mps 734 mmHg 85%
    19:00 +16°C° 0.3 mm 1 mps 734 mmHg 88%
    20:00 +14°C° 0 mm 1 mps 734 mmHg 90%
    21:00 +13°C° 0 mm 1 mps 734 mmHg 92%
    22:00 +12°C° 0 mm 1 mps 734 mmHg 93%
    23:00 +12°C° 0 mm 1 mps 734 mmHg 94%

    2 Junio, Martes

    Tiempo Temperatura Precipitaciones Viento Presión Humedad
    00:00 +11°C° 0 mm 1 mps 734 mmHg 94%
    01:00 +11°C° 0 mm 1 mps 734 mmHg 94%
    02:00 +10°C° 0 mm 1 mps 733 mmHg 95%
    03:00 +10°C° 0 mm 1 mps 733 mmHg 95%
    04:00 +10°C° 0 mm 1 mps 733 mmHg 95%
    05:00 +10°C° 0 mm 2 mps 733 mmHg 93%
    06:00 +13°C° 0 mm 2 mps 733 mmHg 91%
    07:00 +14°C° 0 mm 2 mps 733 mmHg 89%
    08:00 +16°C° 0 mm 3 mps 733 mmHg 82%
    09:00 +18°C° 0 mm 4 mps 733 mmHg 75%
    10:00 +20°C° 0 mm 5 mps 732 mmHg 68%
    11:00 +21°C° 0 mm 5 mps 732 mmHg 65%
    12:00 +22°C° 0 mm 6 mps 732 mmHg 62%
    13:00 +22°C° 0 mm 6 mps 731 mmHg 59%
    14:00 +22°C° 0 mm 6 mps 731 mmHg 60%
    15:00 +22°C° 0 mm 7 mps 731 mmHg 61%
    16:00 +22°C° 0 mm 7 mps 730 mmHg 62%
    17:00 +21°C° 0 mm 6 mps 730 mmHg 66%
    18:00 +20°C° 0 mm 6 mps 730 mmHg 70%
    19:00 +17°C° 0 mm 6 mps 730 mmHg 74%
    20:00 +17°C° 0 mm 6 mps 730 mmHg 75%
    21:00 +16°C° 0 mm 5 mps 730 mmHg 75%
    22:00 +15°C° 0 mm 5 mps 730 mmHg 76%
    23:00 +14°C° 0 mm 5 mps 730 mmHg 78%

    3 Junio, Miércoles

    Tiempo Temperatura Precipitaciones Viento Presión Humedad
    00:00 +13°C° 0 mm 4 mps 729 mmHg 80%
    01:00 +13°C° 0 mm 4 mps 729 mmHg 82%
    02:00 +12°C° 0 mm 4 mps 729 mmHg 83%
    03:00 +12°C° 0 mm 3 mps 729 mmHg 85%
    04:00 +11°C° 0 mm 3 mps 729 mmHg 87%
    05:00 +13°C° 0 mm 2 mps 729 mmHg 83%
    06:00 +15°C° 0 mm 2 mps 729 mmHg 79%
    07:00 +16°C° 0 mm 2 mps 729 mmHg 76%
    08:00 +18°C° 0 mm 2 mps 729 mmHg 71%
    09:00 +20°C° 0 mm 2 mps 729 mmHg 67%
    10:00 +21°C° 0 mm 2 mps 729 mmHg 63%
    11:00 +23°C° 0 mm 2 mps 729 mmHg 59%
    12:00 +25°C° 0 mm 2 mps 729 mmHg 55%
    13:00 +26°C° 0 mm 2 mps 729 mmHg 51%
    14:00 +26°C° 0 mm 3 mps 729 mmHg 52%
    15:00 +26°C° 0 mm 3 mps 728 mmHg 53%
    16:00 +26°C° 0 mm 3 mps 728 mmHg 54%
    17:00 +25°C° 0 mm 3 mps 728 mmHg 60%
    18:00 +22°C° 0 mm 3 mps 728 mmHg 66%
    19:00 +20°C° 0 mm 3 mps 728 mmHg 72%
    20:00 +19°C° 0 mm 3 mps 728 mmHg 75%
    21:00 +18°C° 0 mm 3 mps 729 mmHg 78%
    22:00 +16°C° 0 mm 3 mps 729 mmHg 80%
    23:00 +15°C° 0 mm 2 mps 729 mmHg 83%
    Mostrar más